Location: *
(37.5724°S, 58.0067°E)
Time: 10:23:15
(UTC+00:00)

Cosmos 1980 - Pass Details

Date: 02 February 2021
Orbit: 840 x 846 km, 71.0° (Epoch: 07 March)

Event Time Altitude Azimuth Distance (km) Brightness Sun altitude
Rises 19:11:57 0° 186° (S) 3,441 7.9 -33.4°
Reaches altitude 10° 19:15:38 10° 163° (SSE) 2,497 6.7 -33.7°
Maximum altitude 19:18:48 15° 129° (SE) 2,161 6.0 -33.9°
Enters shadow 19:19:13 15° 124° (SE) 2,166 5.9 -33.9°
